1497816000.77,8370,17.13,74540.5,1.85,-27.23,-25.71,0,*48
1497816001.99,8371,17.13,74542.0,1.83,-27.23,-25.87,0,*46
1497816003.24,8372,17.13,74544.0,1.83,-27.23,-25.71,0,*4C
1497816004.5,8373,17.13,74542.3,1.85,-27.19,-25.71,0,*42
1497816005.72,8374,17.13,74540.8,1.83,-27.39,-25.91,0,*4F
1497816006.96,8375,17.13,74546.0,1.85,-27.35,-25.91,0,*44
1497816008.18,8376,17.13,74544.5,1.85,-27.51,-26.07,0,*49
1497816009.4,8377,17.13,74544.5,1.85,-27.55,-26.07,0,*4C
1497816010.64,8378,17.13,74544.0,1.85,-27.67,-26.17,0,*43
1497816011.89,8379,17.13,74546.5,1.85,-27.67,-26.17,0,*42
1497816013.08,8380,17.13,74544.8,1.83,-27.51,-25.91,0,*4A
1497816014.3,8381,17.13,74546.8,1.83,-27.39,-25.91,0,*45
1497816015.51,8382,17.13,74544.8,1.83,-27.35,-25.87,0,*4D
1497816016.73,8383,17.13,74548.5,1.83,-27.23,-25.91,0,*4C
1497816017.95,8384,17.13,74546.5,1.85,-27.55,-26.03,0,*44
1497816019.17,8385,17.13,74550.3,1.85,-27.55,-26.07,0,*41
1497816020.41,8386,17.13,74548.5,1.85,-27.55,-26.17,0,*43
1497816021.61,8387,17.13,74546.5,1.83,-27.55,-26.07,0,*45
1497816022.8,8388,17.13,74546.0,1.83,-27.55,-26.03,0,*4E
1497816024.0,8389,17.13,74544.8,1.83,-27.51,-26.07,0,*4F
1497816025.22,8390,17.13,74548.0,1.85,-27.55,-26.03,0,*41
1497816026.44,8391,17.13,74546.3,1.85,-27.71,-26.23,0,*44
1497816027.64,8392,17.13,74544.8,1.83,-27.51,-26.03,0,*41
1497816028.85,8393,17.13,74548.3,1.85,-27.71,-26.23,0,*46
1497816030.1,8394,17.13,74550.0,1.81,-27.61,-26.23,0,*44
1497816031.3,8395,17.13,74550.8,1.83,-27.51,-26.07,0,*42
1497816032.49,8396,17.13,74552.3,1.83,-27.55,-26.07,0,*45
1497816033.68,8397,17.13,74546.0,1.83,-27.71,-26.23,0,*44
1497816034.9,8398,17.13,74544.0,1.83,-27.55,-26.17,0,*4A
1497816036.12,8399,17.13,74546.3,1.81,-27.71,-26.23,0,*48
1497816037.33,8400,17.13,74546.8,1.81,-27.55,-26.23,0,*49
1497816038.6,8401,17.13,74546.0,1.81,-27.39,-25.97,0,*4E
1497816039.85,8402,17.13,74546.0,1.81,-27.55,-26.13,0,*48
1497816041.07,8403,17.13,74542.0,1.79,-27.51,-26.17,0,*4E
1497816042.34,8404,17.13,74540.8,1.81,-27.45,-26.13,0,*4F
1497816043.56,8405,17.13,74540.5,1.81,-27.29,-25.91,0,*4D
1497816044.81,8406,17.13,74540.8,1.79,-27.35,-25.97,0,*42
1497816046.03,8407,17.13,74544.0,1.81,-27.29,-25.91,0,*4F
1497816047.27,8408,17.13,74546.0,1.81,-27.23,-25.91,0,*4A
1497816048.49,8409,17.13,74546.0,1.79,-27.35,-25.91,0,*4B
1497816049.71,8410,17.13,74542.3,1.81,-27.29,-25.91,0,*49
1497816050.98,8411,17.13,74544.8,1.81,-27.45,-25.97,0,*44
1497816052.23,8412,17.13,74546.8,1.81,-27.39,-26.03,0,*42
1497816053.45,8413,17.13,74544.3,1.81,-27.55,-26.07,0,*4D
1497816054.69,8414,17.13,74542.3,1.81,-27.23,-25.87,0,*40
1497816055.91,8415,17.13,74542.8,1.81,-27.29,-25.91,0,*4C
1497816057.18,8416,17.13,74542.3,1.81,-27.23,-25.75,0,*4F
1497816058.4,8417,17.13,74542.3,1.81,-27.13,-25.87,0,*40
1497816059.62,8418,17.13,74540.0,1.81,-27.29,-25.91,0,*41
1497816060.84,8419,17.13,74540.5,1.79,-27.13,-25.75,0,*44
1497816062.09,8420,17.13,74542.8,1.81,-27.13,-25.71,0,*4D
1497816063.33,8421,17.13,74546.0,1.81,-27.23,-25.87,0,*46
1497816064.56,8422,17.13,74542.3,1.79,-27.13,-25.71,0,*48
1497816065.81,8423,17.13,74542.3,1.81,-26.93,-25.61,0,*46
1497816067.06,8424,17.13,74544.8,1.81,-26.87,-25.55,0,*43
1497816068.31,8425,17.13,74540.5,1.81,-26.93,-25.61,0,*40
1497816069.53,8426,17.13,74544.3,1.81,-27.03,-25.61,0,*4B
1497816070.78,8427,17.13,74544.8,1.81,-27.03,-25.71,0,*4B
1497816072.06,8428,17.13,74540.0,1.81,-26.93,-25.55,0,*4A
1497816073.28,8429,17.13,74544.8,1.81,-27.07,-25.87,0,*48
1497816074.52,8430,17.13,74542.5,1.81,-27.13,-25.75,0,*48
1497816075.76,8431,17.13,74540.5,1.81,-27.23,-25.87,0,*47
1497816077.0,8432,17.13,74538.8,1.81,-27.23,-25.87,0,*44
1497816078.23,8433,17.13,74542.3,1.81,-27.03,-25.61,0,*4F
1497816079.48,8434,17.13,74546.5,1.81,-27.07,-25.75,0,*49
1497816080.76,8435,17.13,74544.5,1.81,-26.93,-25.55,0,*46
1497816081.99,8436,17.13,74546.8,1.79,-27.07,-25.75,0,*4C
1497816083.23,8437,17.13,74544.3,1.81,-27.03,-25.71,0,*4A
1497816084.46,8438,17.13,74540.8,1.81,-27.29,-25.87,0,*44
1497816085.66,8439,17.13,74544.0,1.79,-27.29,-25.91,0,*45
1497816086.91,8440,17.13,74544.0,1.81,-27.03,-25.71,0,*4A
1497816088.16,8441,17.13,74544.0,1.81,-27.03,-25.71,0,*4B
1497816089.37,8442,17.13,74544.8,1.79,-27.19,-25.91,0,*4A
1497816090.6,8443,17.13,74546.8,1.79,-27.13,-25.75,0,*4B
1497816091.82,8444,17.13,74544.3,1.79,-27.13,-25.75,0,*4C
1497816093.05,8445,17.13,74542.5,1.79,-27.13,-25.75,0,*4D
1497816094.32,8446,17.13,74546.0,1.81,-26.93,-25.45,0,*43
1497816095.56,8447,17.13,74542.5,1.81,-26.87,-25.45,0,*47
1497816096.79,8448,17.13,74540.5,1.79,-26.97,-25.61,0,*48
1497816098.03,8449,17.13,74542.5,1.79,-26.97,-25.65,0,*4D
1497816099.28,8450,17.13,74542.3,1.81,-27.07,-25.71,0,*4F
1497816100.51,8451,17.13,74540.3,1.81,-27.07,-25.61,0,*4F
1497816101.78,8452,17.13,74538.8,1.81,-26.93,-25.55,0,*47
1497816103.03,8453,17.13,74540.0,1.81,-26.87,-25.55,0,*43
1497816104.26,8454,17.13,74544.5,1.79,-26.93,-25.61,0,*41
1497816105.46,8455,17.13,74546.3,1.79,-27.13,-25.65,0,*4D
1497816106.71,8456,17.13,74544.3,1.81,-27.03,-25.55,0,*4B
1497816107.96,8457,17.13,74546.0,1.81,-27.03,-25.71,0,*4C
1497816109.18,8458,17.13,74548.0,1.81,-27.07,-25.87,0,*4E
1497816110.4,8459,17.13,74546.5,1.81,-27.07,-25.87,0,*4F
1497816111.62,8460,17.13,74550.3,1.81,-27.29,-25.87,0,*49
1497816112.84,8461,17.13,74544.0,1.81,-27.29,-25.91,0,*4F
1497816114.06,8462,17.13,74544.8,1.81,-27.29,-25.91,0,*4C
1497816115.28,8463,17.13,74544.5,1.81,-27.29,-25.91,0,*4D
1497816116.5,8464,17.13,74540.3,1.79,-27.19,-25.91,0,*4E
1497816117.75,8465,17.13,74544.3,1.81,-26.93,-25.61,0,*44
1497816118.95,8466,17.13,74544.8,1.79,-27.07,-25.91,0,*43
1497816120.14,8467,17.13,74546.8,1.79,-27.13,-25.91,0,*47
1497816121.39,8468,17.13,74544.5,1.81,-26.93,-25.61,0,*49
1497816122.63,8469,17.13,74544.5,1.79,-26.93,-25.61,0,*4F
1497816123.87,8470,17.13,74546.5,1.81,-26.87,-25.55,0,*42
1497816125.1,8471,17.13,74542.5,1.79,-26.93,-25.61,0,*46
1497816126.32,8472,17.13,74544.5,1.79,-26.65,-25.49,0,*46
1497816127.55,8473,17.13,74544.3,1.79,-26.81,-25.49,0,*4D
1497816128.77,8474,17.13,74550.5,1.79,-27.13,-25.81,0,*44
1497816130.02,8475,17.13,74546.0,1.79,-27.35,-25.97,0,*46
1497816131.28,8476,17.13,74544.0,1.79,-26.97,-25.75,0,*40
1497816132.54,8477,17.13,74546.8,1.77,-26.93,-25.65,0,*4A
1497816133.82,8478,17.13,74546.0,1.77,-26.77,-25.45,0,*4D
1497816135.05,8479,17.13,74546.0,1.79,-26.93,-25.65,0,*4A
1497816136.24,8480,17.13,74546.8,1.79,-27.13,-25.91,0,*4E
1497816137.47,8481,17.13,74546.5,1.79,-26.97,-25.65,0,*49
1497816138.71,8482,17.13,74546.8,1.79,-26.81,-25.61,0,*49
1497816139.94,8483,17.13,74544.0,1.79,-26.93,-25.49,0,*41
1497816141.19,8484,17.13,74540.5,1.79,-26.77,-25.45,0,*40
1497816142.45,8485,17.13,74546.3,1.79,-26.77,-25.45,0,*41
1497816143.65,8486,17.13,74546.5,1.79,-26.49,-25.19,0,*46
1497816144.86,8487,17.13,74544.5,1.79,-26.65,-25.49,0,*4C
1497816146.13,8488,17.13,74546.3,1.81,-26.77,-25.45,0,*4B
1497816147.36,8489,17.13,74550.0,1.79,-26.77,-25.49,0,*41
1497816148.58,8490,17.13,74550.3,1.79,-26.65,-25.49,0,*4A
1497816149.83,8491,17.13,74544.8,1.79,-26.33,-25.03,0,*46
1497816151.03,8492,17.13,74544.0,1.79,-26.61,-25.35,0,*47
1497816152.23,8493,17.13,74544.5,1.79,-26.65,-25.35,0,*42
1497816153.48,8494,17.13,74550.5,1.79,-26.77,-25.45,0,*41
1497816154.71,8495,17.13,74548.3,1.79,-26.61,-25.29,0,*4D
1497816155.9,8496,17.13,74544.8,1.79,-26.45,-25.19,0,*4B
1497816157.11,8497,17.13,74546.0,1.79,-26.65,-25.35,0,*46
1497816158.33,8498,17.13,74544.8,1.79,-26.61,-25.29,0,*40
1497816159.56,8499,17.13,74544.8,1.79,-26.65,-25.45,0,*4F
1497816160.79,8500,17.13,74540.5,1.79,-26.93,-25.65,0,*45
1497816162.03,8501,17.13,74540.8,1.79,-26.81,-25.49,0,*49
1497816163.25,8502,17.13,74544.5,1.79,-26.61,-25.29,0,*42
1497816164.48,8503,17.13,74544.0,1.79,-26.49,-25.03,0,*41
1497816165.71,8504,17.13,74542.3,1.79,-26.65,-25.45,0,*4A
1497816166.97,8505,17.13,74546.3,1.81,-26.71,-25.45,0,*49
1497816168.2,8506,17.13,74544.5,1.79,-26.77,-25.49,0,*47
1497816169.42,8507,17.13,74544.8,1.81,-26.45,-25.13,0,*4F
1497816170.64,8508,17.13,74546.8,1.81,-26.39,-25.23,0,*48
1497816171.87,8509,17.13,74544.5,1.79,-26.65,-25.45,0,*47
1497816173.14,8510,17.13,74544.5,1.81,-26.71,-25.55,0,*4C
1497816174.38,8511,17.13,74546.5,1.79,-26.77,-25.61,0,*4B
1497816175.59,8512,17.13,74544.3,1.79,-26.65,-25.49,0,*41
1497816176.79,8513,17.13,74546.5,1.79,-26.49,-25.19,0,*4B
1497816178.01,8514,17.13,74544.5,1.79,-26.49,-25.29,0,*4F
1497816179.21,8515,17.13,74544.3,1.79,-26.61,-25.35,0,*49
1497816180.42,8516,17.13,74548.5,1.79,-26.65,-25.49,0,*45
1497816181.62,8517,17.13,74546.3,1.79,-26.61,-25.35,0,*4B
1497816182.83,8518,17.13,74544.8,1.79,-26.65,-25.49,0,*4B
1497816184.07,8519,17.13,74544.0,1.79,-26.77,-25.61,0,*43
1497816185.31,8520,17.13,74546.8,1.81,-26.45,-25.29,0,*43
1497816186.51,8521,17.13,74544.0,1.79,-26.45,-25.35,0,*48
1497816187.71,8522,17.13,74546.5,1.79,-26.61,-25.49,0,*46
1497816188.96,8523,17.13,74546.8,1.81,-26.71,-25.39,0,*46
1497816190.16,8524,17.13,74544.3,1.79,-26.49,-25.19,0,*4F
1497816191.38,8525,17.13,74540.8,1.81,-26.39,-25.23,0,*47
1497816192.6,8526,17.13,74546.5,1.79,-26.49,-25.29,0,*4E
1497816193.83,8527,17.13,74546.3,1.79,-26.49,-25.45,0,*45
1497816195.05,8528,17.13,74544.0,1.81,-26.45,-25.39,0,*4A
1497816196.27,8529,17.13,74542.3,1.81,-26.61,-25.39,0,*4D
1497816197.49,8530,17.13,74542.5,1.79,-26.61,-25.45,0,*49
1497816198.72,8531,17.13,74544.5,1.79,-26.65,-25.45,0,*4C
1497816199.95,8532,17.13,74544.5,1.79,-26.49,-25.29,0,*4B
1497816201.16,8533,17.13,74544.8,1.81,-26.45,-25.23,0,*4B
1497816202.42,8534,17.13,74548.8,1.79,-26.33,-25.03,0,*48
1497816203.67,8535,17.13,74548.8,1.79,-26.13,-25.03,0,*4B
1497816204.91,8536,17.13,74546.0,1.81,-26.39,-25.29,0,*4F
1497816206.11,8537,17.13,74542.8,1.79,-26.45,-25.19,0,*41
1497816207.34,8538,17.13,74548.0,1.79,-26.49,-25.29,0,*41
1497816208.55,8539,17.13,74544.8,1.81,-26.39,-25.23,0,*4A
1497816209.77,8540,17.13,74544.5,1.81,-26.45,-25.23,0,*4F
1497816211.03,8541,17.13,74544.3,1.79,-26.33,-25.03,0,*4A
1497816212.28,8542,17.13,74542.8,1.79,-26.17,-25.03,0,*4F
1497816213.5,8543,17.13,74544.3,1.79,-26.29,-24.97,0,*4F
1497816214.7,8544,17.13,74546.8,1.79,-26.03,-24.97,0,*40
1497816215.95,8545,17.13,74540.8,1.79,-26.29,-25.03,0,*45
1497816217.15,8546,17.13,74542.8,1.79,-26.45,-25.13,0,*4D
1497816218.39,8547,17.13,74546.3,1.81,-26.29,-24.97,0,*4C
1497816219.65,8548,17.13,74544.3,1.79,-26.33,-25.03,0,*43
1497816220.87,8549,17.13,74546.5,1.81,-26.39,-25.23,0,*4D
1497816222.09,8550,17.13,74544.5,1.81,-26.39,-25.23,0,*45
1497816223.31,8551,17.13,74546.3,1.79,-26.61,-25.45,0,*4E
1497816224.53,8552,17.13,74546.8,1.79,-26.61,-25.29,0,*47
1497816225.76,8553,17.13,74542.8,1.79,-26.49,-25.45,0,*46
1497816226.99,8554,17.13,74548.5,1.79,-26.77,-25.61,0,*4A
1497816228.23,8555,17.13,74544.0,1.79,-26.77,-25.49,0,*41
1497816229.46,8556,17.13,74544.0,1.79,-26.77,-25.49,0,*42
1497816230.7,8557,17.13,74546.8,1.79,-26.77,-25.61,0,*49
1497816231.91,8558,17.13,74546.5,1.79,-26.65,-25.49,0,*4F
1497816233.15,8559,17.13,74544.0,1.81,-26.45,-25.29,0,*4D
1497816234.35,8560,17.13,74548.8,1.79,-26.49,-25.35,0,*41
1497816235.55,8561,17.13,74544.8,1.79,-26.45,-25.19,0,*42
1497816236.75,8562,17.13,74548.0,1.79,-26.45,-25.13,0,*4B
1497816237.95,8563,17.13,74544.8,1.79,-26.45,-25.19,0,*40
1497816239.17,8564,17.13,74546.0,1.79,-26.45,-25.29,0,*44
1497816240.39,8565,17.13,74546.3,1.77,-26.45,-25.19,0,*48
1497816241.62,8566,17.13,74544.5,1.77,-26.49,-25.19,0,*47
1497816242.85,8567,17.13,74548.8,1.79,-26.49,-25.29,0,*4B
1497816244.07,8568,17.13,74550.0,1.79,-26.45,-25.29,0,*48
1497816245.29,8569,17.13,74546.5,1.77,-26.45,-25.35,0,*4A
1497816246.52,8570,17.13,74546.0,1.77,-26.49,-25.35,0,*4E
1497816247.75,8571,17.13,74544.3,1.77,-26.61,-25.49,0,*4E
1497816249.0,8572,17.13,74544.3,1.77,-26.61,-25.45,0,*41
1497816250.23,8573,17.13,74548.3,1.77,-26.61,-25.61,0,*46
1497816251.46,8574,17.13,74542.8,1.75,-26.49,-25.45,0,*4F
1497816252.71,8575,17.13,74544.3,1.77,-26.33,-25.19,0,*48
1497816253.91,8576,17.13,74544.3,1.75,-26.49,-25.19,0,*44
1497816255.19,8577,17.13,74546.5,1.77,-26.33,-25.29,0,*49
1497816256.42,8578,17.13,74544.0,1.77,-26.45,-25.35,0,*4A
1497816257.64,8579,17.13,74544.5,1.75,-26.55,-25.49,0,*43
1497816258.87,8580,17.13,74548.5,1.77,-26.49,-25.35,0,*41
1497816260.12,8581,17.13,74548.0,1.77,-26.61,-25.45,0,*4D
1497816261.36,8582,17.13,74546.8,1.77,-26.61,-25.45,0,*4E
1497816262.57,8583,17.13,74548.8,1.75,-26.61,-25.49,0,*41
1497816263.8,8584,17.13,74550.8,1.77,-26.49,-25.35,0,*45
1497816264.99,8585,17.13,74548.3,1.75,-26.23,-25.19,0,*44
1497816266.19,8586,17.13,74546.3,1.75,-26.49,-25.23,0,*42
1497816267.39,8587,17.13,74552.0,1.75,-26.39,-25.23,0,*44
1497816268.58,8588,17.13,74550.5,1.75,-26.39,-25.35,0,*4C
1497816269.78,8589,17.13,74550.5,1.75,-26.39,-25.35,0,*4D
1497816270.99,8590,17.13,74548.0,1.75,-26.49,-25.39,0,*4E
1497816272.19,8591,17.13,74546.0,1.75,-26.49,-25.35,0,*43
1497816273.38,8592,17.13,74548.5,1.75,-26.49,-25.35,0,*40
1497816274.61,8593,17.13,74552.0,1.77,-26.39,-25.19,0,*4A
1497816275.81,8594,17.13,74552.8,1.75,-26.23,-25.09,0,*45
1497816277.05,8595,17.13,74548.5,1.73,-26.33,-25.19,0,*42
1497816278.26,8596,17.13,74552.0,1.75,-26.49,-25.49,0,*4F
1497816279.47,8597,17.13,74552.3,1.75,-26.49,-25.49,0,*4E
1497816280.69,8598,17.13,74552.3,1.75,-26.55,-25.65,0,*42
1497816281.89,8599,17.13,74554.0,1.75,-26.39,-25.19,0,*42
1497816283.13,8600,17.13,74550.5,1.75,-26.33,-25.09,0,*4A
1497816284.33,8601,17.13,74552.0,1.75,-26.49,-25.23,0,*4E
1497816285.53,8602,17.13,74552.3,1.75,-26.49,-25.39,0,*46
1497816286.73,8603,17.13,74550.5,1.75,-26.49,-25.35,0,*4B
1497816287.95,8604,17.13,74554.5,1.73,-26.39,-25.23,0,*4A
1497816289.16,8605,17.13,74548.0,1.73,-26.23,-25.23,0,*40
1497816290.37,8606,17.13,74552.3,1.73,-26.23,-25.19,0,*4A
1497816291.6,8607,17.13,74550.3,1.73,-26.07,-25.09,0,*4C
1497816292.85,8608,17.13,74550.8,1.73,-26.17,-25.09,0,*42
1497816294.09,8609,17.13,74550.0,1.73,-26.17,-25.19,0,*42
1497816295.32,8610,17.13,74552.0,1.75,-26.17,-25.09,0,*4D
1497816296.56,8611,17.13,74556.0,1.73,-26.23,-25.03,0,*47
1497816297.76,8612,17.13,74548.0,1.75,-26.39,-25.23,0,*4B
1497816298.96,8613,17.13,74552.3,1.75,-26.07,-25.09,0,*4F
1497816300.21,8614,17.13,74548.3,1.73,-26.17,-25.19,0,*4E
1497816301.43,8615,17.13,74550.8,1.73,-26.07,-25.09,0,*4F
1497816302.65,8616,17.13,74548.8,1.73,-26.07,-25.19,0,*4D
1497816303.87,8617,17.13,74548.0,1.71,-26.23,-25.09,0,*49
1497816305.14,8618,17.13,74550.5,1.73,-25.97,-24.83,0,*4B
1497816306.4,8619,17.13,74548.0,1.73,-25.81,-24.87,0,*49
1497816307.65,8620,17.13,74548.0,1.75,-26.17,-25.03,0,*44
1497816308.88,8621,17.13,74554.0,1.75,-26.07,-25.03,0,*44
1497816310.12,8622,17.13,74548.3,1.77,-25.81,-24.93,0,*40
1497816311.38,8623,17.06,74548.8,1.75,-25.71,-24.83,0,*4D
1497816312.65,8624,17.13,74548.5,1.77,-25.81,-24.83,0,*47
1497816313.87,8625,17.13,74550.0,1.75,-25.97,-24.97,0,*46
1497816315.09,8626,17.13,74552.0,1.75,-25.87,-24.87,0,*45
1497816316.32,8627,17.13,74552.0,1.75,-26.03,-25.03,0,*46
1497816317.55,8628,17.13,74550.5,1.75,-25.87,-24.87,0,*4B
1497816318.8,8629,17.13,74554.5,1.75,-25.97,-24.87,0,*4B
1497816320.05,8630,17.13,74554.3,1.75,-25.97,-25.03,0,*4E
1497816321.28,8631,17.13,74554.0,1.75,-26.03,-25.03,0,*41
1497816322.5,8632,17.13,74552.0,1.77,-25.91,-24.93,0,*40
1497816323.75,8633,17.13,74552.8,1.75,-25.81,-24.71,0,*4E
1497816324.97,8634,17.13,74554.3,1.75,-25.87,-24.83,0,*42
1497816326.2,8635,17.13,74548.0,1.75,-26.03,-25.03,0,*45
1497816327.46,8636,17.13,74552.0,1.77,-26.03,-25.03,0,*44
1497816328.66,8637,17.13,74550.5,1.75,-26.07,-25.09,0,*49
1497816329.9,8638,17.13,74554.0,1.75,-25.81,-24.87,0,*4C
1497816331.12,8639,17.13,74548.5,1.77,-25.91,-24.93,0,*4B
1497816332.4,8640,17.13,74550.5,1.77,-25.75,-24.83,0,*4E
1497816333.62,8641,17.13,74552.5,1.75,-25.87,-24.83,0,*40
1497816334.87,8642,17.13,74552.0,1.77,-25.75,-24.77,0,*47
1497816336.1,8643,17.13,74554.3,1.77,-25.65,-24.77,0,*47
1497816337.37,8644,17.13,74554.5,1.77,-25.81,-24.83,0,*41
1497816338.64,8645,17.13,74554.3,1.77,-25.81,-24.83,0,*40
1497816339.89,8646,17.06,74550.0,1.77,-25.81,-24.93,0,*42
1497816341.11,8647,17.13,74554.8,1.77,-25.61,-24.47,0,*44
1497816342.36,8648,17.13,74554.5,1.75,-25.75,-24.83,0,*44
1497816343.61,8649,17.13,74554.3,1.75,-25.71,-24.83,0,*41
1497816344.83,8650,17.13,74556.0,1.77,-25.61,-24.77,0,*41
1497816346.08,8651,17.13,74562.5,1.75,-25.81,-24.83,0,*47
1497816347.35,8652,17.13,74564.3,1.77,-25.81,-24.83,0,*46
1497816348.59,8653,17.06,74558.5,1.77,-25.81,-24.93,0,*46
1497816349.84,8654,17.13,74560.0,1.77,-25.65,-24.67,0,*40
1497816351.09,8655,17.13,74560.0,1.75,-25.71,-24.83,0,*4C
1497816352.33,8656,17.13,74556.0,1.75,-25.81,-24.83,0,*40
1497816353.58,8657,17.13,74560.3,1.77,-25.61,-24.67,0,*47
1497816354.82,8658,17.13,74556.5,1.77,-25.65,-24.67,0,*4C
1497816356.02,8659,17.13,74558.0,1.79,-25.65,-24.77,0,*42
1497816357.24,8660,17.06,74552.5,1.79,-25.65,-24.67,0,*49
1497816358.44,8661,17.13,74556.0,1.79,-25.49,-24.51,0,*43
1497816359.64,8662,17.13,74558.8,1.79,-25.49,-24.51,0,*40
1497816360.86,8663,17.13,74560.0,1.79,-25.65,-24.67,0,*4A
1497816362.07,8664,17.13,74554.3,1.79,-25.65,-24.67,0,*4D
1497816363.32,8665,17.13,74554.5,1.79,-25.75,-24.83,0,*47
1497816364.52,8666,17.13,74552.0,1.79,-25.61,-24.51,0,*4E
1497816365.72,8667,17.13,74556.0,1.79,-25.49,-24.51,0,*45
1497816366.94,8668,17.13,74552.3,1.81,-25.61,-24.61,0,*44
1497816368.16,8669,17.13,74550.8,1.79,-25.81,-24.93,0,*41
1497816369.43,8670,17.13,74552.8,1.81,-25.75,-24.87,0,*40
1497816370.64,8671,17.13,74554.3,1.79,-25.81,-24.93,0,*48
1497816371.89,8672,17.06,74548.3,1.79,-25.81,-24.83,0,*4A
1497816373.11,8673,17.13,74554.0,1.81,-25.87,-24.93,0,*4B
1497816374.3,8674,17.13,74554.3,1.79,-25.91,-24.97,0,*48
1497816375.5,8675,17.13,74554.0,1.79,-25.91,-24.93,0,*4D
1497816376.71,8676,17.13,74556.5,1.79,-25.81,-24.93,0,*4F
1497816377.94,8677,17.13,74556.3,1.79,-25.75,-24.77,0,*4F
1497816379.14,8678,17.13,74552.5,1.79,-25.61,-24.77,0,*45
1497816380.36,8679,17.13,74556.3,1.79,-25.65,-24.67,0,*41
1497816381.57,8680,17.13,74552.0,1.79,-25.65,-24.67,0,*47
1497816382.82,8681,17.13,74550.3,1.81,-25.61,-24.87,0,*4B
1497816384.04,8682,17.13,74550.5,1.79,-25.91,-24.83,0,*44
1497816385.28,8683,17.13,74554.5,1.77,-25.49,-24.67,0,*44
1497816386.5,8684,17.13,74550.5,1.79,-25.81,-24.93,0,*42
1497816387.72,8685,17.13,74552.8,1.79,-25.81,-24.93,0,*43
1497816388.97,8686,17.13,74550.3,1.79,-25.75,-24.83,0,*4A
1497816390.17,8687,17.13,74552.5,1.79,-25.65,-24.77,0,*41
1497816391.39,8688,17.13,74552.3,1.79,-25.65,-24.67,0,*4F
1497816392.64,8689,17.13,74552.3,1.79,-25.75,-24.83,0,*45
1497816393.83,8690,17.13,74556.3,1.79,-25.91,-24.97,0,*42
1497816395.05,8691,17.13,74552.3,1.79,-25.97,-24.97,0,*45
1497816396.31,8692,17.13,74556.3,1.77,-25.75,-24.77,0,*4A
1497816397.51,8693,17.13,74558.0,1.79,-25.65,-24.77,0,*44
1497816398.75,8694,17.13,74554.8,1.79,-25.75,-24.83,0,*49
1497816399.97,8695,17.13,74554.3,1.79,-25.65,-24.67,0,*43
1497816401.22,8696,17.13,74556.0,1.79,-25.81,-24.83,0,*40
1497816402.44,8697,17.13,74554.0,1.79,-25.75,-24.77,0,*41
1497816403.69,8698,17.13,74552.0,1.79,-25.75,-24.67,0,*4F
1497816404.9,8699,17.13,74552.0,1.79,-25.45,-24.47,0,*4F
1497816406.15,8700,17.13,74552.8,1.79,-25.29,-24.21,0,*44
1497816407.39,8701,17.13,74554.5,1.81,-25.13,-24.11,0,*48
1497816408.61,8702,17.13,74554.3,1.79,-25.13,-24.15,0,*48
1497816409.8,8703,17.13,74552.3,1.79,-25.35,-24.35,0,*4F
1497816411.05,8704,17.13,74552.0,1.79,-25.29,-24.21,0,*40
1497816412.28,8705,17.13,74552.0,1.81,-25.13,-24.11,0,*4C
1497816413.52,8706,17.13,74552.8,1.81,-25.39,-24.41,0,*42
1497816414.77,8707,17.13,74554.3,1.81,-25.55,-24.57,0,*4E
1497816416.0,8708,17.13,74552.0,1.81,-25.45,-24.47,0,*41
1497816417.25,8709,17.13,74558.5,1.81,-25.55,-24.57,0,*40
1497816418.49,8710,17.13,74558.5,1.81,-25.75,-24.93,0,*42
1497816419.71,8711,17.13,74558.0,1.79,-25.81,-24.93,0,*4F
1497816420.93,8712,17.13,74554.5,1.81,-25.87,-24.77,0,*47
1497816422.2,8713,17.13,74556.5,1.81,-25.71,-24.71,0,*49
1497816423.45,8714,17.13,74558.0,1.81,-25.71,-24.77,0,*48
1497816424.7,8715,17.13,74552.0,1.81,-25.61,-24.71,0,*4E
1497816425.9,8716,17.13,74554.0,1.79,-25.61,-24.61,0,*4B
1497816427.14,8717,17.13,74552.3,1.81,-25.71,-24.77,0,*4B
1497816428.39,8718,17.13,74552.0,1.81,-25.71,-24.77,0,*44
1497816429.64,8719,17.13,74554.8,1.79,-25.81,-24.83,0,*46
1497816430.88,8720,17.13,74554.3,1.81,-25.61,-24.71,0,*48
1497816432.13,8721,17.13,74554.3,1.81,-25.55,-24.57,0,*4A
1497816433.35,8722,17.13,74556.3,1.79,-25.65,-24.83,0,*44
1497816434.57,8723,17.13,74552.5,1.81,-25.87,-24.93,0,*4F
1497816435.79,8724,17.13,74556.0,1.79,-25.81,-24.77,0,*43
1497816437.06,8725,17.13,74556.8,1.81,-25.71,-24.71,0,*4C
1497816438.28,8726,17.13,74556.0,1.81,-25.61,-24.61,0,*4F
1497816439.53,8727,17.13,74554.5,1.79,-25.81,-24.83,0,*4B
1497816440.77,8728,17.13,74562.0,1.81,-25.87,-24.87,0,*41
1497816442.04,8729,17.13,74558.3,1.81,-25.75,-24.71,0,*44
1497816443.31,8730,17.13,74554.8,1.81,-25.75,-24.71,0,*4C
1497816444.53,8731,17.13,74556.5,1.79,-25.65,-24.67,0,*4C
1497816445.73,8732,17.13,74556.5,1.79,-25.65,-24.77,0,*4E
1497816446.98,8733,17.13,74556.0,1.81,-25.71,-24.77,0,*4D
1497816448.2,8734,17.13,74556.5,1.79,-25.75,-24.93,0,*43
1497816449.44,8735,17.13,74556.3,1.81,-25.61,-24.71,0,*4C
1497816450.66,8736,17.06,74556.0,1.79,-25.65,-24.67,0,*4B
1497816451.86,8737,17.13,74558.5,1.79,-25.65,-24.77,0,*4B
1497816453.11,8738,17.13,74562.0,1.79,-25.75,-24.83,0,*4E
1497816454.33,8739,17.13,74556.0,1.79,-25.81,-24.93,0,*45
1497816455.56,8740,17.13,74556.0,1.79,-25.75,-24.77,0,*4A
1497816456.77,8741,17.13,74552.5,1.79,-25.61,-24.67,0,*4F
1497816457.99,8742,17.13,74554.3,1.79,-25.45,-24.35,0,*4D
1497816459.23,8743,17.06,74548.5,1.81,-25.39,-24.41,0,*43
1497816460.46,8744,17.13,74554.0,1.81,-25.45,-24.57,0,*48
1497816461.74,8745,17.13,74554.3,1.81,-25.71,-24.71,0,*4A
1497816462.96,8746,17.06,74554.5,1.79,-25.75,-24.77,0,*4C
1497816464.19,8747,17.13,74558.0,1.79,-25.75,-24.77,0,*4D
1497816465.43,8748,17.13,74556.8,1.81,-25.55,-24.47,0,*44
1497816466.65,8749,17.13,74556.3,1.81,-25.61,-24.61,0,*46
1497816467.9,8750,17.06,74556.5,1.81,-25.71,-24.77,0,*48
1497816469.12,8751,17.13,74556.0,1.81,-25.61,-24.61,0,*4F
1497816470.33,8752,17.13,74558.8,1.79,-25.65,-24.67,0,*49
1497816471.58,8753,17.13,74556.0,1.79,-25.81,-24.83,0,*48
1497816472.8,8754,17.13,74556.0,1.79,-25.75,-24.77,0,*4F
1497816474.05,8755,17.06,74552.5,1.79,-25.75,-24.83,0,*45
1497816475.3,8756,17.13,74556.8,1.79,-25.81,-24.83,0,*4D
1497816476.52,8757,17.06,74552.8,1.79,-25.81,-24.77,0,*47
1497816477.72,8758,17.13,74558.5,1.79,-25.91,-24.97,0,*47
1497816478.94,8759,17.13,74556.8,1.79,-25.97,-24.93,0,*44
1497816480.13,8760,17.06,74552.5,1.79,-25.91,-24.97,0,*4C
1497816481.38,8761,17.13,74558.0,1.79,-25.81,-24.83,0,*49
1497816482.62,8762,17.13,74558.3,1.77,-25.65,-24.67,0,*44
1497816483.87,8763,17.13,74560.0,1.79,-25.81,-24.83,0,*4B
1497816485.06,8764,17.13,74560.5,1.79,-25.91,-24.93,0,*4C
1497816486.31,8765,17.06,74556.5,1.77,-25.91,-24.83,0,*42
1497816487.55,8766,17.13,74562.3,1.79,-25.81,-24.67,0,*44
1497816488.77,8767,17.13,74560.5,1.79,-25.81,-24.77,0,*44
1497816490.05,8768,17.13,74562.0,1.77,-25.81,-24.83,0,*4E
1497816491.27,8769,17.13,74560.3,1.77,-25.65,-24.77,0,*4E
1497816492.5,8770,17.13,74560.0,1.77,-25.65,-24.77,0,*46
1497816493.72,8771,17.13,74558.3,1.79,-25.75,-24.77,0,*48
1497816494.97,8772,17.13,74556.3,1.79,-25.75,-24.83,0,*40
1497816496.19,8773,17.13,74556.0,1.79,-25.75,-24.61,0,*4D
1497816497.39,8774,17.13,74562.8,1.79,-25.65,-24.61,0,*4B
1497816498.64,8775,17.13,74558.3,1.77,-25.75,-24.61,0,*45
1497816499.89,8776,17.13,74558.0,1.77,-25.75,-24.51,0,*45
1497816501.12,8777,17.06,74554.5,1.77,-25.65,-24.47,0,*42
1497816502.31,8778,17.06,74552.5,1.79,-25.61,-24.35,0,*42
1497816503.56,8779,17.13,74556.0,1.77,-25.75,-24.31,0,*4C
1497816504.8,8780,17.13,74554.8,1.79,-25.75,-24.15,0,*42
1497816506.02,8781,17.06,74554.5,1.79,-25.65,-23.99,0,*41
1497816507.3,8782,17.06,74554.3,1.77,-25.75,-23.85,0,*40
1497816508.57,8783,17.13,74556.5,1.77,-25.81,-23.53,0,*41